GW0915 Weather Reports


time (UTC)temp
C
wind
direction
speed
KPH
gust
KPH
rain 1hr
cm
rain 24hr
cm
rain mn
cm
humidity
%
barometer
mb
20260506134128 8 341 0.0 0.0 0.00 0.66 0.66 87 1005.3
20260506133625 8 342 1.6 1.6 0.00 0.66 0.66 89 1005.1
20260506133122 8 342 1.6 1.6 0.00 0.66 0.66 91 1005.2
20260506132620 8 342 1.6 3.2 0.00 0.66 0.66 93 1005.3
20260506132116 8 342 0.0 0.0 0.00 0.66 0.66 95 1005.1
20260506131614 8 342 0.0 0.0 0.00 0.66 0.66 96 1005.3
20260506131110 7 342 0.0 0.0 0.00 0.66 0.66 96 1005.0
20260506130607 8 342 0.0 0.0 0.00 0.66 0.66 97 1005.1
20260506130104 8 342 0.0 0.0 0.00 0.66 0.66 97 1004.8
20260506125603 7 342 0.0 0.0 0.00 0.66 0.66 97 1004.4
20260506125100 7 342 0.0 0.0 0.00 0.66 0.66 98 1004.9
20260506124557 7 342 0.0 0.0 0.00 0.66 0.66 98 1004.5
20260506124055 7 342 0.0 0.0 0.00 0.66 0.66 98 1004.3
20260506123553 7 342 0.0 0.0 0.00 0.66 0.66 98 1004.2
20260506123051 7 342 0.0 0.0 0.00 0.66 0.66 98 1004.6
20260506122547 7 342 0.0 0.0 0.00 0.66 0.66 98 1004.5
20260506122046 7 342 0.0 0.0 0.00 0.66 0.66 98 1004.2
20260506121543 7 343 0.0 0.0 0.00 0.66 0.66 98 1004.4
20260506121038 7 343 0.0 0.0 0.00 0.66 0.66 98 1004.7
20260506120537 7 343 0.0 0.0 0.00 0.66 0.66 98 1004.4
20260506120034 7 343 0.0 0.0 0.00 0.66 0.66 98 1004.0
20260506115532 7 343 0.0 0.0 0.00 0.66 0.66 98 1004.2
20260506115030 7 343 0.0 0.0 0.00 0.66 0.66 98 1004.4
20260506114527 7 343 0.0 0.0 0.00 0.66 0.66 98 1004.2
20260506114026 7 343 0.0 0.0 0.00 0.66 0.66 98 1004.3
20260506113523 7 343 0.0 0.0 0.00 0.66 0.66 98 1004.1
20260506113020 7 343 0.0 0.0 0.00 0.66 0.66 98 1003.9
20260506112517 7 343 0.0 0.0 0.00 0.66 0.66 98 1004.0
20260506112014 7 343 0.0 0.0 0.00 0.66 0.66 98 1004.1
20260506111512 7 343 0.0 0.0 0.00 0.66 0.66 98 1003.7
20260506111009 7 343 0.0 0.0 0.00 0.66 0.66 98 1004.0
20260506110507 7 343 0.0 0.0 0.00 0.66 0.66 98 1003.8
20260506110004 7 343 0.0 0.0 0.00 0.66 0.66 98 1003.5
20260506105459 6 343 0.0 0.0 0.00 0.66 0.66 98 1003.9
20260506104957 6 343 0.0 0.0 0.00 0.66 0.66 98 1003.4
20260506104455 6 343 0.0 0.0 0.00 0.66 0.66 98 1003.0
20260506103953 6 343 1.6 3.2 0.00 0.66 0.66 98 1003.3
20260506103449 6 339 1.6 3.2 0.00 0.66 0.66 98 1003.4
20260506102946 6 339 1.6 1.6 0.00 0.66 0.66 98 1003.6
20260506102444 7 339 1.6 1.6 0.00 0.66 0.66 98 1003.4
20260506101941 7 339 1.6 1.6 0.00 0.66 0.66 98 1003.3
20260506101438 6 339 0.0 0.0 0.00 0.66 0.66 98 1003.3
20260506100935 6 339 0.0 0.0 0.00 0.66 0.66 98 1002.9
20260506100433 6 339 0.0 0.0 0.18 0.66 0.66 98 1002.6
20260506095931 6 340 0.0 0.0 0.18 0.66 0.66 98 1002.6
20260506095429 6 340 0.0 0.0 0.00 0.64 0.64 98 1002.5
20260506094925 6 340 0.0 0.0 0.00 0.64 0.64 98 1002.6
20260506094424 6 340 0.0 0.0 0.00 0.64 0.64 98 1002.9
20260506093921 6 340 0.0 1.6 0.00 0.64 0.64 98 1003.1
20260506093419 6 339 1.6 3.2 0.00 0.64 0.64 98 1003.4
20260506092917 6 322 0.0 1.6 0.00 0.64 0.64 98 1003.7
20260506092415 7 321 1.6 3.2 0.00 0.64 0.64 98 1003.7
20260506091911 7 316 4.8 4.8 0.00 0.64 0.64 98 1003.6
20260506091409 7 354 1.6 3.2 0.18 0.64 0.64 98 1003.7
20260506090906 7 5 1.6 3.2 0.18 0.64 0.64 98 1003.7
20260506090403 7 13 0.0 0.0 0.00 0.61 0.61 98 1003.4
20260506085900 7 13 0.0 0.0 0.00 0.61 0.61 98 1003.1
20260506085356 7 13 0.0 0.0 0.00 0.61 0.61 98 1003.2
20260506084853 7 13 0.0 0.0 0.00 0.61 0.61 98 1003.3
20260506084350 7 14 0.0 0.0 0.00 0.61 0.61 98 1003.0
20260506083846 7 14 0.0 0.0 0.13 0.61 0.61 98 1002.9
20260506083344 7 14 0.0 1.6 0.13 0.61 0.61 98 1002.9
20260506082841 7 15 0.0 0.0 0.00 0.58 0.58 98 1002.9
20260506082338 7 15 0.0 0.0 0.18 0.58 0.58 98 1003.2
20260506081833 7 15 0.0 0.0 0.30 0.58 0.58 98 1003.3
20260506081332 7 15 0.0 0.0 0.30 0.56 0.56 98 1003.5
20260506080829 7 15 0.0 0.0 0.30 0.53 0.53 98 1003.5
20260506080325 7 14 0.0 0.0 0.30 0.51 0.51 98 1003.2
20260506073310 7 14 0.0 0.0 0.13 0.41 0.41 98 1003.3
20260506072806 7 15 0.0 0.0 0.13 0.41 0.41 98 1003.2
20260506072305 7 15 0.0 0.0 0.18 0.38 0.38 98 1002.7
20260506071802 7 14 0.0 0.0 0.30 0.38 0.38 98 1003.1
20260506071300 7 14 0.0 0.0 0.13 0.36 0.36 98 1003.1
20260506070756 7 15 0.0 0.0 0.00 0.33 0.33 98 1003.2
20260506070253 7 15 0.0 0.0 0.00 0.33 0.33 97 1002.9
20260506062230 7 15 0.0 0.0 0.18 0.30 0.30 97 1003.3
20260506061726 7 15 0.0 0.0 0.18 0.30 0.30 97 1003.3
20260506061224 7 15 0.0 0.0 0.13 0.28 0.28 97 1003.3
20260506060722 7 15 0.0 0.0 0.13 0.28 0.28 97 1003.1
20260506060219 7 15 0.0 0.0 0.18 0.25 0.25 97 1003.1
20260506051151 7 15 0.0 0.0 0.13 0.13 0.13 96 1003.4
20260506050649 7 15 0.0 0.0 0.13 0.13 0.13 97 1003.5
20260506050146 7 15 0.0 0.0 0.18 0.10 0.10 97 1003.6
20260506044637 8 350 0.0 0.0 0.13 0.08 0.08 97 1003.7
20260506044134 8 350 0.0 0.0 0.00 0.05 0.05 97 1003.6
20260506043631 8 350 0.0 0.0 0.00 0.05 0.05 97 1003.7
20260506043129 8 350 0.0 0.0 0.18 0.05 0.05 97 1003.7
20260506042628 8 350 1.6 1.6 0.18 0.05 0.05 97 1003.7
20260506042125 8 351 0.0 0.0 0.00 0.03 0.03 97 1003.6
20260506041624 8 350 0.0 0.0 0.00 0.03 0.03 98 1003.8
20260506041120 8 350 0.0 3.2 0.13 0.03 0.03 98 1004.1
20260506040618 8 354 0.0 1.6 0.13 0.03 0.03 98 1003.7
20260506040114 8 355 1.6 3.2 0.18 0.00 0.00 98 1004.0
20260506035611 8 359 4.8 8.0 0.18 2.41 2.41 98 1004.0
20260506035108 8 19 3.2 3.2 0.18 2.39 2.39 98 1004.1
20260506034605 8 19 1.6 1.6 0.18 2.39 2.39 98 1004.2
20260506034102 8 20 0.0 0.0 0.13 2.36 2.36 98 1004.3
20260506033559 8 21 0.0 0.0 0.13 2.36 2.36 98 1004.2
20260506033056 8 21 1.6 1.6 0.18 2.34 2.34 98 1004.5
20260506032553 8 40 1.6 1.6 0.18 2.34 2.34 98 1004.2
20260506032050 9 43 0.0 0.0 0.13 2.31 2.31 98 1004.4
20260506031548 9 43 0.0 0.0 0.30 2.31 2.31 98 1004.4
20260506031044 9 44 0.0 0.0 0.30 2.29 2.29 98 1004.2
20260506030543 9 44 0.0 0.0 0.43 2.26 2.26 98 1004.1
20260506030040 9 44 0.0 0.0 0.48 2.24 2.24 98 1004.5
20260506025537 9 44 0.0 0.0 0.30 2.18 2.18 98 1004.5
20260506025032 9 44 0.0 0.0 0.61 2.16 2.16 98 1004.4
20260506024530 9 44 0.0 0.0 0.48 2.11 2.11 98 1004.4
20260506024026 9 44 0.0 0.0 0.30 2.06 2.06 98 1004.3
20260506023522 9 44 0.0 0.0 0.30 2.03 2.03 98 1004.3
20260506023020 9 44 0.0 0.0 0.30 2.01 2.01 98 1003.9
20260506022517 9 45 0.0 0.0 0.30 1.96 1.96 98 1003.9
20260506022015 9 46 0.0 0.0 0.30 1.93 1.93 98 1003.9
20260506021512 9 46 0.0 0.0 0.30 1.91 1.91 98 1004.0
20260506021009 9 47 0.0 0.0 0.30 1.88 1.88 97 1003.6
20260506020507 9 47 0.0 0.0 0.30 1.85 1.85 97 1003.7
20260506020004 9 47 0.0 0.0 0.48 1.83 1.83 97 1003.6
20260506015501 9 47 0.0 0.0 0.66 1.80 1.80 97 1003.5
20260506014958 9 47 0.0 1.6 0.43 1.75 1.75 97 1003.4
20260506014455 9 48 0.0 0.0 0.30 1.70 1.70 97 1003.7
20260506013951 9 48 0.0 0.0 0.30 1.68 1.68 97 1003.7
20260506013449 9 48 0.0 0.0 0.30 1.65 1.65 97 1003.8
20260506012945 9 48 0.0 0.0 0.30 1.63 1.63 97 1003.6
20260506012442 9 48 0.0 0.0 0.13 1.60 1.60 97 1003.8
20260506011939 9 48 0.0 0.0 0.00 1.57 1.57 97 1003.7
20260506011436 9 53 0.0 0.0 0.18 1.57 1.57 97 1003.5
20260506010933 9 53 1.6 3.2 0.18 1.57 1.57 97 1003.5
20260506010432 9 53 1.6 3.2 0.00 1.55 1.55 97 1003.5
20260506005927 9 55 0.0 0.0 0.00 1.55 1.55 97 1003.5
20260506005426 9 56 0.0 0.0 0.00 1.55 1.55 97 1003.4
20260506004920 9 50 3.2 3.2 0.13 1.55 1.55 97 1003.2
20260506004419 9 102 1.6 4.8 0.30 1.55 1.55 97 1003.2
20260506003914 9 13 3.2 3.2 0.48 1.52 1.52 97 1003.4
20260506003411 9 56 0.0 1.6 0.48 1.50 1.50 97 1003.6
20260506002908 9 60 0.0 3.2 0.48 1.45 1.45 97 1002.9
20260506002404 9 26 0.0 0.0 0.61 1.42 1.42 97 1003.1
20260506001859 9 19 0.0 0.0 0.30 1.37 1.37 97 1003.0
20260506001356 9 20 1.6 3.2 0.13 1.32 1.32 97 1002.9
20260506000854 9 358 0.0 0.0 0.13 1.32 1.32 97 1003.1
20260506000354 9 358 0.0 0.0 0.00 1.30 1.30 97 1003.1
20260505235848 9 358 0.0 1.6 0.00 1.30 1.30 97 1003.0
20260505235346 9 358 0.0 0.0 0.00 1.30 1.30 97 1003.1
20260505234842 9 358 0.0 0.0 0.00 1.30 1.30 97 1002.7
20260505234340 9 350 1.6 1.6 0.00 1.30 1.30 97 1002.9
20260505233837 9 350 1.6 1.6 0.00 1.30 1.30 97 1003.0
20260505233335 9 350 0.0 1.6 0.00 1.30 1.30 97 1003.1
20260505232832 9 350 0.0 3.2 0.18 1.30 1.30 97 1003.1
20260505232330 9 347 0.0 1.6 0.18 1.30 1.30 97 1003.1
20260505231826 10 347 0.0 1.6 0.00 1.27 1.27 97 1003.5
20260505231324 10 348 1.6 3.2 0.30 1.27 1.27 96 1003.4
20260505230822 10 349 1.6 1.6 0.30 1.24 1.24 96 1003.6
20260505230319 10 353 0.0 0.0 0.30 1.22 1.22 96 1003.4
20260505225815 10 353 0.0 1.6 0.66 1.19 1.19 96 1003.6
20260505225313 10 354 3.2 3.2 0.89 1.17 1.17 96 1003.5
20260505224807 10 338 0.0 1.6 0.71 1.09 1.09 96 1003.6
20260505224306 10 340 3.2 4.8 0.30 1.02 1.02 96 1003.6
20260505223803 10 343 1.6 1.6 0.18 0.97 0.97 96 1003.3
20260505223300 10 352 4.8 8.0 0.18 0.97 0.97 96 1003.0
20260505222755 11 355 1.6 3.2 0.13 0.94 0.94 96 1003.0
20260505222251 11 24 3.2 4.8 0.30 0.94 0.94 96 1003.1
20260505221749 11 11 1.6 4.8 0.30 0.91 0.91 96 1003.1
20260505221245 11 24 1.6 1.6 0.30 0.89 0.89 96 1003.0
20260505220742 11 20 0.0 1.6 0.36 0.86 0.86 96 1003.0
20260505220239 11 21 1.6 3.2 0.18 0.84 0.84 96 1003.1
20260505215738 11 1 0.0 1.6 0.13 0.81 0.81 95 1002.9
20260505215235 11 1 1.6 3.2 0.30 0.81 0.81 95 1002.9
20260505214733 11 10 1.6 3.2 0.18 0.79 0.79 95 1002.7
20260505214230 11 14 3.2 3.2 0.30 0.76 0.76 95 1003.0
20260505213727 13 356 4.8 9.7 0.48 0.74 0.74 94 1002.9
20260505213224 13 302 0.0 1.6 0.30 0.69 0.69 95 1002.9
20260505212720 13 295 0.0 0.0 0.30 0.66 0.66 95 1002.5
20260505212218 13 294 0.0 0.0 0.30 0.64 0.64 95 1002.4
20260505211714 13 295 0.0 0.0 0.13 0.61 0.61 95 1002.7
20260505211212 13 295 0.0 1.6 0.48 0.58 0.58 95 1002.6
20260505210708 13 296 1.6 1.6 1.07 0.58 0.58 95 1002.4
20260505210205 13 296 0.0 1.6 1.07 0.51 0.51 94 1002.9
20260505205703 13 299 1.6 1.6 0.79 0.41 0.41 94 1002.6
20260505205201 13 301 0.0 0.0 0.89 0.33 0.33 94 1002.3
20260505204657 13 302 0.0 0.0 0.66 0.25 0.25 93 1002.6
20260505204155 13 298 0.0 0.0 0.18 0.18 0.18 93 1002.7
20260505203652 13 302 0.0 0.0 0.13 0.15 0.15 93 1002.5
20260505203148 14 302 0.0 0.0 0.13 0.15 0.15 93 1002.5
20260505202644 14 302 0.0 0.0 0.00 0.13 0.13 93 1002.6
20260505202140 14 302 0.0 0.0 0.30 0.13 0.13 92 1002.6
20260505201637 14 302 0.0 0.0 0.48 0.13 0.13 92 1002.4
20260505201135 14 302 0.0 0.0 0.18 0.08 0.08 91 1002.9
20260505200633 14 302 0.0 0.0 0.00 0.05 0.05 91 1002.4
20260505200129 14 302 0.0 0.0 0.00 0.05 0.05 90 1002.5
20260505195625 14 301 0.0 0.0 0.00 0.05 0.05 90 1002.6
20260505195123 14 301 0.0 3.2 0.13 0.05 0.05 89 1002.6
20260505194620 15 299 1.6 3.2 0.13 0.05 0.05 88 1003.0
20260505194116 15 300 1.6 3.2 0.00 0.03 0.03 86 1002.9
20260505193613 15 304 3.2 3.2 0.00 0.03 0.03 84 1002.6
20260505193110 15 304 4.8 3.2 0.00 0.03 0.03 82 1002.7
20260505192609 16 299 3.2 3.2 0.00 0.03 0.03 79 1002.9
20260505192106 16 284 1.6 3.2 0.00 0.03 0.03 76 1002.4
20260505191604 16 281 1.6 1.6 0.00 0.03 0.03 74 1002.4
20260505191101 16 281 3.2 3.2 0.00 0.03 0.03 72 1002.3
20260505190556 17 281 1.6 4.8 0.00 0.03 0.03 71 1002.6
20260505190052 17 281 0.0 0.0 0.00 0.03 0.03 70 1002.9
20260505185549 17 281 0.0 3.2 0.00 0.03 0.03 70 1002.6
20260505185045 17 280 0.0 1.6 0.00 0.03 0.03 68 1002.9
20260505184542 17 280 0.0 0.0 0.00 0.03 0.03 68 1002.6
20260505184039 17 278 1.6 3.2 0.00 0.03 0.03 67 1002.9
20260505183536 17 277 3.2 4.8 0.00 0.03 0.03 66 1002.6
20260505183033 17 268 1.6 3.2 0.00 0.03 0.03 67 1002.7
20260505182529 17 283 3.2 4.8 0.00 0.03 0.03 66 1002.9
20260505182026 17 288 3.2 3.2 0.00 0.03 0.03 66 1002.7
20260505181523 17 284 0.0 0.0 0.00 0.03 0.03 66 1002.9
20260505181021 17 276 1.6 4.8 0.00 0.03 0.03 66 1002.7
20260505180516 17 279 3.2 8.0 0.00 0.03 0.03 65 1002.6
20260505180015 17 291 1.6 3.2 0.00 0.03 0.03 66 1002.6
20260505175509 17 282 0.0 4.8 0.00 0.03 0.03 65 1002.7
20260505175006 17 283 3.2 3.2 0.00 0.03 0.03 65 1002.5
20260505174503 18 257 1.6 4.8 0.00 0.03 0.03 65 1002.4
20260505173959 18 298 1.6 3.2 0.00 0.03 0.03 64 1002.4
20260505173455 18 278 4.8 8.0 0.00 0.03 0.03 63 1002.5
20260505172952 18 276 1.6 4.8 0.00 0.03 0.03 63 1002.5
20260505172451 18 274 4.8 8.0 0.00 0.03 0.03 63 1002.6
20260505171950 18 280 6.4 8.0 0.00 0.03 0.03 63 1002.5
20260505171447 18 261 4.8 8.0 0.00 0.03 0.03 62 1002.3
20260505170944 18 290 4.8 8.0 0.00 0.03 0.03 61 1002.3
20260505170441 18 281 4.8 4.8 0.00 0.03 0.03 62 1002.4
20260505165936 18 278 3.2 3.2 0.00 0.03 0.03 62 1002.4
20260505165432 18 293 3.2 4.8 0.00 0.03 0.03 62 1002.3
20260505164927 18 289 0.0 1.6 0.00 0.03 0.03 61 1002.4
20260505164425 18 270 4.8 4.8 0.00 0.03 0.03 60 1002.4
20260505163922 18 285 4.8 8.0 0.00 0.03 0.03 60 1002.4
20260505163421 18 273 6.4 8.0 0.00 0.03 0.03 59 1002.3
20260505162920 18 265 6.4 8.0 0.00 0.03 0.03 59 1002.2
20260505162415 18 259 1.6 8.0 0.00 0.03 0.03 59 1002.3
20260505161912 19 270 4.8 4.8 0.00 0.03 0.03 59 1002.0
20260505161409 19 284 4.8 8.0 0.00 0.03 0.03 58 1002.1
20260505160907 19 271 4.8 8.0 0.00 0.03 0.03 56 1002.1
20260505160405 20 257 4.8 4.8 0.00 0.03 0.03 56 1002.2
20260505153343 20 258 4.8 8.0 0.00 0.03 0.03 53 1001.4
20260505152840 20 256 1.6 4.8 0.00 0.03 0.03 53 1001.2
20260505152337 20 258 4.8 8.0 0.00 0.03 0.03 54 1001.0
20260505151831 20 267 3.2 8.0 0.00 0.03 0.03 55 1001.1
20260505151328 20 263 3.2 8.0 0.00 0.03 0.03 55 1001.2
20260505150825 20 235 1.6 9.7 0.00 0.03 0.03 54 1001.3
20260505150322 20 269 3.2 8.0 0.00 0.03 0.03 55 1001.4
20260505140247 18 262 6.4 8.0 0.00 0.03 0.03 61 1001.0